Latest Weather Observations for Essendon Airport

IDV60901

Issued at 10:21 pm EDT Tuesday 31 March 2015 (issued every 10 minutes, with the page automatically refreshed every 10 minutes)

About weather observations | Map of Melbourne area stations | Latest observations for Melbourne area | Other Formats
Station Details ID: 086038 Name: ESSENDON AIRPORT Lat: -37.73 Lon: 144.91 Height: 78.4 m
Data from the previous 72 hours. | See also: Recent months at Essendon Airport
Date/Time
EDT
Tmp

°C
App
Tmp
°C
Dew
Point
°C
Rel
Hum
%
Delta-T

°C
Wind Press
QNH
hPa
Press
MSL
hPa
Rain
since
9 am
mm
Dir
 
Spd
km/h
Gust
km/h
Spd
kts
Gust
kts
31/10:00pm 16.8 16.4 13.1 79 2.1 W 7 9 4 5 1022.5 1022.3 -
31/09:30pm 18.1 16.8 13.8 76 2.5 W 13 17 7 9 1022.6 1022.4 -
31/09:00pm 18.5 16.9 13.8 74 2.7 WSW 15 19 8 10 1022.4 1022.2 0.0
31/08:30pm 18.5 16.9 12.9 70 3.2 W 13 15 7 8 1022.0 1021.8 -
31/08:00pm 19.2 17.7 13.2 68 3.4 W 13 15 7 8 1021.8 1021.6 -
31/07:30pm 20.2 18.6 12.9 63 4.1 SW 13 17 7 9 1021.4 1021.2 -
31/07:00pm 21.1 18.6 10.9 52 5.6 SSW 15 22 8 12 1021.3 1021.1 -
31/06:30pm 22.3 18.3 10.5 47 6.5 S 22 26 12 14 1021.3 1021.1 -
31/05:30pm 23.5 20.2 11.5 47 6.8 S 20 26 11 14 1021.1 1020.9 -
31/05:00pm 24.2 20.4 11.2 44 7.3 S 22 28 12 15 1021.1 1020.9 -
31/04:30pm 24.6 21.2 11.2 43 7.6 S 20 26 11 14 1021.3 1021.1 -
31/04:00pm 25.1 21.5 12.0 44 7.5 S 22 28 12 15 1021.7 1021.5 -
31/03:30pm 25.0 21.8 11.9 44 7.5 S 20 26 11 14 1021.9 1021.7 -
31/03:00pm 25.5 22.3 12.0 43 7.7 S 20 24 11 13 1022.1 1021.9 -
31/02:30pm 25.6 23.5 9.8 37 8.7 SE 11 15 6 8 1022.5 1022.3 -
31/02:00pm 24.9 23.1 9.6 38 8.4 NE 9 20 5 11 1023.2 1023.0 -
31/01:30pm 24.1 23.4 11.4 45 7.2 NNE 6 63 3 34 1023.7 - 0.0
31/01:21pm 24.1 19.2 11.4 45 7.2 ESE 28 48 15 26 1023.9 - 0.0
31/01:00pm 23.4 22.8 11.8 48 6.5 ENE 6 15 3 8 1024.4 1024.3 0.0
31/12:30pm 21.6 19.9 11.3 52 5.7 E 11 19 6 10 1024.9 1024.8 0.0
31/12:00pm 20.8 19.2 11.7 56 5.1 E 11 17 6 9 1025.6 1025.5 0.0
31/11:30am 19.6 18.4 11.6 60 4.4 E 9 13 5 7 1026.1 1026.0 0.0
31/11:00am 18.8 18.2 11.6 63 3.9 SE 6 11 3 6 1026.8 1026.7 0.0
31/10:30am 17.6 16.9 12.1 70 3.0 S 7 9 4 5 1027.1 1027.0 0.0
31/10:00am 17.0 16.5 11.9 72 2.8 E 6 9 3 5 1027.0 1026.9 0.0
31/09:30am 16.1 16.0 12.1 77 2.2 NNE 4 6 2 3 1026.8 1026.7 0.0
31/08:30am 11.9 10.8 10.5 91 0.7 N 7 9 4 5 1026.5 1026.4 0.0
31/08:00am 10.0 8.4 8.9 93 0.5 N 7 7 4 4 1026.2 1026.1 0.0
31/07:30am 9.3 7.5 8.1 92 0.6 NW 7 9 4 5 1026.1 1026.0 0.0
31/07:00am 9.7 7.7 8.6 93 0.5 N 9 11 5 6 1025.7 1025.6 0.0
31/06:30am 9.6 7.5 8.2 91 0.7 NW 9 11 5 6 1025.5 1025.4 0.0
31/05:30am 11.0 8.9 9.8 92 0.6 WNW 11 13 6 7 1025.3 1025.2 0.0
31/05:00am 10.5 8.3 9.3 92 0.6 NW 11 13 6 7 1025.1 1025.0 0.0
31/04:30am 10.4 8.5 9.0 91 0.7 NW 9 13 5 7 1025.3 1025.2 0.0
31/04:00am 11.0 9.2 9.4 90 0.8 NW 9 11 5 6 1025.4 1025.3 0.0
31/03:30am 11.6 9.9 10.0 90 0.8 WNW 9 11 5 6 1025.6 1025.5 0.0
31/03:00am 11.6 9.5 9.9 89 0.9 WNW 11 13 6 7 1025.7 1025.6 0.0
31/02:30am 11.8 9.7 9.9 88 1.0 WNW 11 11 6 6 1025.8 1025.7 0.0
31/02:00am 12.0 9.9 9.9 87 1.1 WNW 11 11 6 6 1025.9 1025.8 0.0
31/01:30am 13.2 11.3 10.6 84 1.4 W 11 11 6 6 1026.0 1025.9 0.0
31/01:00am 13.4 11.8 10.2 81 1.7 SW 9 9 5 5 1026.1 1026.0 0.0
31/12:30am 14.0 12.9 10.6 80 1.8 SSW 7 9 4 5 1026.1 1026.0 0.0
 
Date/Time
EDT
Tmp

°C
App
Tmp
°C
Dew
Point
°C
Rel
Hum
%
Delta-T

°C
Wind Press
QNH
hPa
Press
MSL
hPa
Rain
since
9 am
mm
Dir
 
Spd
km/h
Gust
km/h
Spd
kts
Gust
kts
30/11:30pm 14.9 14.3 10.5 75 2.3 S 4 9 2 5 1026.4 1026.3 0.0
30/11:00pm 15.8 14.7 10.8 72 2.7 S 7 11 4 6 1026.5 1026.4 0.0
30/10:30pm 15.8 14.7 10.8 72 2.7 SSE 7 9 4 5 1026.4 1026.3 0.0
30/10:00pm 16.1 15.0 10.6 70 2.9 S 7 11 4 6 1026.3 1026.2 0.0
30/09:30pm 16.6 14.6 11.5 72 2.8 SSE 13 17 7 9 1026.2 1026.1 0.0
30/09:00pm 16.2 14.9 12.6 79 2.0 SW 11 11 6 6 1026.0 1025.9 0.0
30/08:30pm 17.2 15.3 11.7 70 3.0 SSW 13 17 7 9 1025.6 1025.5 0.0
30/08:00pm 18.1 16.2 11.7 66 3.5 SSW 13 17 7 9 1025.2 1025.1 0.0
30/07:30pm 18.8 15.8 10.6 59 4.4 S 17 22 9 12 1024.8 1024.7 0.0
30/07:00pm 19.3 16.4 11.1 59 4.5 S 17 22 9 12 1024.6 1024.5 0.0
30/06:30pm 20.1 16.9 11.1 56 4.9 S 19 24 10 13 1024.2 1024.1 0.0
30/06:00pm 21.0 16.9 10.2 50 5.8 S 22 28 12 15 1023.8 1023.7 0.0
30/05:30pm 21.4 17.6 9.9 48 6.2 S 20 26 11 14 1023.4 1023.3 0.0
30/05:00pm 22.3 18.7 9.8 45 6.8 S 19 26 10 14 1023.0 1022.8 0.0
30/04:30pm 22.6 18.8 9.7 44 7.0 SSE 20 26 11 14 1023.0 1022.8 0.0
30/04:00pm 23.0 18.9 10.1 44 7.0 SSW 22 30 12 16 1023.0 1022.8 0.0
30/03:30pm 22.9 19.3 10.7 46 6.8 S 20 28 11 15 1023.3 1023.2 0.0
30/03:00pm 22.0 17.5 10.2 47 6.4 S 24 30 13 16 1023.4 1023.3 0.0
30/02:30pm 22.1 17.2 9.9 46 6.6 S 26 33 14 18 1023.5 1023.4 0.0
30/02:00pm 23.2 20.4 9.9 43 7.2 S 15 20 8 11 1023.5 1023.4 0.0
30/01:30pm 22.7 20.0 9.1 42 7.3 SSW 13 19 7 10 1023.7 1023.6 0.0
30/01:00pm 21.9 20.0 9.1 44 6.8 SSW 9 13 5 7 1024.0 1023.9 0.0
30/12:30pm 21.5 20.1 9.7 47 6.4 S 7 11 4 6 1024.4 1024.3 0.0
30/12:00pm 21.0 19.2 9.6 48 6.1 ESE 9 13 5 7 1024.7 1024.6 0.0
30/11:30am 19.4 17.8 8.7 50 5.6 ESE 7 13 4 7 1025.0 1024.9 0.0
30/11:00am 18.7 16.8 8.9 53 5.1 SSW 9 15 5 8 1025.3 1025.2 0.0
30/10:30am 17.8 16.6 9.4 58 4.4 NW 6 11 3 6 1025.1 1025.0 0.0
30/10:00am 16.1 15.5 8.8 62 3.7 SW 2 7 1 4 1025.0 1024.9 0.0
30/09:30am 14.6 13.2 9.0 69 2.9 NW 6 9 3 5 1024.6 1024.5 0.0
30/09:00am 12.6 10.6 8.7 77 1.9 WSW 9 11 5 6 1024.6 1024.5 0.0
30/08:30am 11.5 11.3 9.1 85 1.2 CALM 0 0 0 0 1024.2 1024.1 0.0
30/08:00am 9.6 9.1 7.9 89 0.8 CALM 0 0 0 0 1023.9 1023.8 0.0
30/07:30am 9.1 6.8 7.4 89 0.8 SW 9 9 5 5 1023.6 1023.5 0.0
30/07:00am 9.6 9.1 8.0 90 0.8 CALM 0 0 0 0 1023.2 1023.0 0.0
30/06:30am 10.3 8.7 8.9 91 0.7 NE 7 9 4 5 1022.8 1022.6 0.0
30/06:00am 8.4 6.0 7.0 91 0.7 NE 9 11 5 6 1022.6 1022.4 0.0
30/05:30am 9.4 7.8 8.0 91 0.7 N 6 7 3 4 1022.7 1022.5 0.0
30/05:00am 9.7 7.5 8.0 89 0.8 NNW 9 11 5 6 1022.7 1022.5 0.0
30/04:30am 10.1 8.0 8.2 88 0.9 W 9 11 5 6 1022.8 1022.6 0.0
30/04:00am 10.4 9.2 8.2 86 1.1 W 4 6 2 3 1022.8 1022.6 0.0
30/03:30am 10.6 8.9 8.5 87 1.0 NW 7 11 4 6 1023.0 1022.8 0.0
30/03:00am 10.9 8.2 9.0 88 0.9 N 13 15 7 8 1023.1 1022.9 0.0
30/02:30am 10.5 8.4 8.4 87 1.0 NNW 9 11 5 6 1023.4 1023.3 0.0
30/02:00am 10.7 8.3 8.5 86 1.1 NW 11 13 6 7 1023.4 1023.3 0.0
30/01:30am 11.3 9.2 8.3 82 1.5 NW 9 11 5 6 1023.6 1023.5 0.0
30/01:00am 12.6 11.2 9.4 81 1.6 NNW 7 9 4 5 1023.6 1023.5 0.0
30/12:30am 13.3 13.2 9.5 78 1.9 CALM 0 0 0 0 1023.7 1023.6 0.0
30/12:00am 13.9 14.0 10.1 78 2.0 CALM 0 0 0 0 1023.9 1023.8 0.0
 
Date/Time
EDT
Tmp

°C
App
Tmp
°C
Dew
Point
°C
Rel
Hum
%
Delta-T

°C
Wind Press
QNH
hPa
Press
MSL
hPa
Rain
since
9 am
mm
Dir
 
Spd
km/h
Gust
km/h
Spd
kts
Gust
kts
29/11:30pm 13.9 13.9 9.7 76 2.2 CALM 0 0 0 0 1024.0 1023.9 0.0
29/11:00pm 14.0 12.9 9.8 76 2.2 SE 6 7 3 4 1024.1 1024.0 0.0
29/10:30pm 14.8 13.0 9.6 71 2.7 SSE 9 11 5 6 1024.2 1024.1 0.0
29/10:00pm 15.4 13.3 9.7 69 3.0 SSE 11 15 6 8 1024.0 1023.9 0.0
29/09:30pm 16.3 13.0 9.7 65 3.5 SE 17 20 9 11 1023.7 1023.6 0.0
29/09:00pm 16.9 13.2 9.6 62 3.8 SE 19 26 10 14 1023.2 1023.0 0.0
29/08:30pm 17.0 14.3 11.7 71 2.9 SSW 17 24 9 13 1022.5 1022.3 0.0
29/08:00pm 17.6 14.7 10.9 65 3.6 S 17 22 9 12 1022.2 1022.0 0.0
29/07:30pm 18.1 15.3 11.2 64 3.8 S 17 24 9 13 1021.8 1021.6 0.0
29/07:00pm 18.9 15.0 9.4 54 5.0 S 20 28 11 15 1021.2 1021.0 0.0
29/06:30pm 19.9 16.2 10.0 53 5.3 SSW 20 26 11 14 1020.7 1020.5 0.0
29/06:00pm 21.3 17.5 9.2 46 6.4 S 19 24 10 13 1020.4 1020.2 0.0
29/05:30pm 21.6 17.6 9.2 45 6.6 S 20 26 11 14 1020.3 1020.1 0.0
29/05:00pm 21.6 17.4 9.8 47 6.4 S 22 28 12 15 1020.2 1020.0 0.0
29/04:30pm 22.2 17.6 9.7 45 6.8 S 24 30 13 16 1020.2 1020.0 0.0
29/04:00pm 22.2 18.3 9.4 44 6.9 S 20 28 11 15 1020.3 1020.1 0.0
29/03:30pm 22.5 18.0 10.0 45 6.8 SSE 24 28 13 15 1020.4 1020.2 0.0
29/03:00pm 22.4 18.2 9.9 45 6.8 S 22 32 12 17 1020.7 1020.5 0.0
29/02:30pm 22.0 17.5 10.2 47 6.4 S 24 32 13 17 1020.8 1020.6 0.0
29/02:00pm 23.1 19.4 9.5 42 7.4 S 19 24 10 13 1020.9 1020.7 0.0
29/01:30pm 23.2 20.7 9.6 42 7.4 SSW 13 22 7 12 1021.2 1021.0 0.0
29/01:00pm 23.2 20.5 8.9 40 7.7 W 13 24 7 13 1021.6 1021.4 0.0
29/12:30pm 21.8 19.4 8.7 43 7.0 W 11 19 6 10 1022.0 1021.8 0.0
29/12:00pm 21.9 18.0 8.8 43 6.9 W 19 28 10 15 1022.4 1022.2 0.0
29/11:30am 21.0 17.9 8.9 46 6.4 W 15 24 8 13 1022.7 1022.5 0.0
29/11:00am 20.7 18.5 9.3 48 6.1 W 11 19 6 10 1022.8 1022.6 0.0
29/10:30am 19.9 17.2 8.9 49 5.8 WNW 13 20 7 11 1023.0 1022.8 0.0
29/10:00am 18.6 16.9 9.7 56 4.7 N 9 11 5 6 1023.0 1022.8 0.0
29/09:30am 15.9 13.6 9.1 64 3.5 N 11 15 6 8 1023.1 1022.9 0.0
29/09:00am 13.2 11.9 9.3 77 2.0 N 6 9 3 5 1023.1 1022.9 0.0
29/08:30am 10.6 8.7 8.9 89 0.8 N 9 11 5 6 1022.9 1022.7 0.0
29/08:00am 7.7 5.2 6.6 93 0.5 NNE 9 11 5 6 1022.7 1022.5 0.0
29/07:30am 7.2 5.0 6.3 94 0.4 NE 7 9 4 5 1022.4 1022.2 0.0
29/07:00am 7.1 5.1 6.2 94 0.4 NNE 6 7 3 4 1022.0 1021.8 0.0
29/06:30am 6.3 4.1 5.1 92 0.5 NNE 6 9 3 5 1021.6 1021.4 0.0
29/06:00am 7.1 6.2 5.9 92 0.5 CALM 0 2 0 1 1021.3 1021.1 0.0
29/05:30am 8.1 6.2 6.9 92 0.6 NNW 6 6 3 3 1021.0 1020.8 0.0
29/05:00am 8.5 6.5 7.3 92 0.6 NNW 7 7 4 4 1020.8 1020.6 0.0
29/04:30am 8.5 5.8 7.3 92 0.6 N 11 13 6 7 1020.7 1020.5 0.0
29/04:00am 7.8 4.9 6.4 91 0.6 N 11 13 6 7 1020.5 1020.3 0.0
29/03:30am 8.1 6.0 6.6 90 0.7 N 7 9 4 5 1021.0 1020.8 0.0
29/03:00am 8.7 6.3 7.0 89 0.8 NNW 9 11 5 6 1021.3 1021.1 0.0
29/02:30am 9.5 6.9 7.6 88 0.9 NNW 11 13 6 7 1021.5 1021.3 0.0
29/02:00am 9.4 6.7 7.3 87 1.0 NW 11 13 6 7 1021.9 1021.7 0.0
29/01:30am 9.5 6.8 7.4 87 1.0 NW 11 13 6 7 1022.1 1021.9 0.0
29/01:00am 10.4 8.3 8.2 86 1.1 NW 9 11 5 6 1022.2 1022.0 0.0
29/12:30am 10.2 7.6 7.8 85 1.2 NW 11 11 6 6 1022.3 1022.1 0.0
29/12:00am 11.4 9.8 8.6 83 1.4 WNW 7 9 4 5 1022.5 1022.3 0.0
 
Date/Time
EDT
Tmp

°C
App
Tmp
°C
Dew
Point
°C
Rel
Hum
%
Delta-T

°C
Wind Press
QNH
hPa
Press
MSL
hPa
Rain
since
9 am
mm
Dir
 
Spd
km/h
Gust
km/h
Spd
kts
Gust
kts
28/11:30pm 12.5 11.8 8.6 77 1.9 WSW 2 9 1 5 1022.6 1022.4 0.0
28/11:00pm 12.9 12.7 9.0 77 2.0 CALM 0 0 0 0 1022.6 1022.4 0.0
28/10:30pm 12.5 11.1 9.0 79 1.8 SSE 6 7 3 4 1022.5 1022.3 0.0

Latest Capital City Observations: Canberra | Sydney | Melbourne | Brisbane | Adelaide | Perth | Hobart | Darwin

Other Formats:

Comma delimited format used in spreadsheet applications
http://www.bom.gov.au/fwo/IDV60901/IDV60901.95866.axf

JavaScript Object Notation format (JSON) in row-major order
http://www.bom.gov.au/fwo/IDV60901/IDV60901.95866.json